Location: Düngen
(52.0952°N, 10.0219°E)
Time: 16:01:42
(UTC+00:00)

Okean O Rocket - Pass Details

Date: 11 March 2026
Orbit: 613 x 635 km, 98.0° (Epoch: 14 April)

Event Time Altitude Azimuth Distance (km) Brightness Sun altitude
Exits shadow 19:16:27 37° 78° (ENE) 999 2.2 -18.8°
Maximum altitude 19:16:49 37° 66° (ENE) 986 2.2 -18.9°
Drops below altitude 10° 19:20:55 10° 359° (N) 2,035 4.5 -19.5°
Sets 19:23:14 0° 352° (N) 2,947 5.4 -19.8°
